Bloomington, IL

11:49 AM CDT on June 26, 2017 (GMT -0500)
Central Ill Regional

Weather History for KBMI - July, 2013

Change the Weather History Date:

Friday, July 5, 2013

  Actual Average Record
Temperature  
Mean Temperature 71 °F -  
Max Temperature 81 °F 89 °F 100 °F (1977)
Min Temperature 61 °F 65 °F 52 °F (2008)
Cooling Degree Days 6    
Growing Degree Days 21 (Base 50)    
Moisture  
Dew Point 64 °F    
Average Humidity 81    
Maximum Humidity 100    
Minimum Humidity 47    
Precipitation  
Precipitation 0.00 in - - ()
Sea Level Pressure  
Sea Level Pressure 30.07 in    
Wind  
Wind Speed 7 mph (South)    
Max Wind Speed 16 mph    
Max Gust Speed -    
Visibility 6 miles    
Events Fog    
Averages and records for this station are not official NWS values.
T = Trace of Precipitation, MM = Missing Value Source: NWS Daily Summary

Daily Weather History Graph

Daily Weather History Graph

Search for Another Location

Airport or City:

Trip Planner

Search our weather history database for the weather conditions in past years. The results will help you decide how hot, cold, wet, or windy it might be!

Date:

Astronomy

Jul. 05, 2013 Rise Set
Actual Time 5:31 AM CDT 8:29 PM CDT
Civil Twilight 4:58 AM CDT 9:01 PM CDT
Nautical Twilight 4:16 AM CDT 9:43 PM CDT
Astronomical Twilight 3:28 AM CDT 10:31 PM CDT
Moon 3:30 AM CDT (7/5) 6:23 PM CDT (7/5)
Length of Visible Light 16h 03m
Length of Day
14h 57m
Waning Crescent, 6% of the Moon is Illuminated
Jul 5
Waning Crescent
Jul 8
New
Jul 15
First Quarter
Jul 22
Full
Jul 29
Last Quarter

Hourly Weather History & Observations

Time (CDT) Temp. Heat Index Dew Point Humidity Pressure Visibility Wind Dir Wind Speed Gust Speed Precip Events Conditions
12:56 AM 66.9 °F - 59.9 °F 78% 30.05 in 10.0 mi SSE 8.1 mph - N/A   Clear
1:56 AM 64.9 °F - 61.9 °F 90% 30.05 in 8.0 mi South 8.1 mph - N/A   Clear
2:56 AM 63.9 °F - 61.9 °F 93% 30.04 in 5.0 mi South 4.6 mph - N/A   Clear
3:56 AM 63.0 °F - 61.9 °F 96% 30.05 in 4.0 mi South 5.8 mph - N/A   Clear
4:21 AM 62.6 °F - 62.6 °F 100% 30.08 in 2.5 mi South 4.6 mph - N/A   Clear
4:56 AM 61.9 °F - 61.9 °F 100% 30.06 in 1.8 mi South 6.9 mph - N/A   Clear
5:20 AM 62.6 °F - 62.6 °F 100% 30.09 in 1.5 mi South 6.9 mph - N/A   Mostly Cloudy
5:22 AM 62.6 °F - 62.6 °F 100% 30.09 in 0.8 mi South 6.9 mph - N/A   Mist
5:25 AM 64.4 °F - 64.4 °F 100% 30.09 in 0.2 mi South 8.1 mph - N/A Fog Fog
5:30 AM 64.4 °F - 64.4 °F 100% 30.09 in 0.2 mi South 6.9 mph - N/A Fog Fog
5:56 AM 63.9 °F - 63.9 °F 100% 30.07 in 0.1 mi SSW 4.6 mph - N/A Fog Fog
6:56 AM 64.9 °F - 64.9 °F 100% 30.07 in 0.1 mi SSW 4.6 mph - N/A Fog Fog
7:26 AM 66.2 °F - 66.2 °F 100% 30.11 in 0.8 mi South 4.6 mph - N/A   Clear
7:42 AM 66.2 °F - 66.2 °F 100% 30.11 in 3.0 mi SSW 5.8 mph - N/A   Clear
7:56 AM 68.0 °F - 68.0 °F 100% 30.09 in 4.0 mi SW 6.9 mph - N/A   Clear
8:20 AM 69.8 °F - 66.2 °F 88% 30.12 in 6.0 mi SSW 6.9 mph - N/A   Scattered Clouds
8:56 AM 70.9 °F - 68.0 °F 91% 30.10 in 5.0 mi SW 5.8 mph - N/A   Partly Cloudy
9:56 AM 75.9 °F - 65.8 °F 71% 30.08 in 7.0 mi Variable 4.6 mph - N/A   Partly Cloudy
10:56 AM 79.0 °F - 63.0 °F 58% 30.08 in 10.0 mi Variable 5.8 mph - N/A   Partly Cloudy
11:56 AM 79.9 °F - 63.9 °F 58% 30.09 in 10.0 mi SSE 9.2 mph - N/A   Scattered Clouds
12:56 PM 79.9 °F - 64.9 °F 60% 30.08 in 10.0 mi Variable 5.8 mph - N/A   Scattered Clouds
1:56 PM 79.9 °F - 64.9 °F 60% 30.06 in 10.0 mi South 12.7 mph - N/A   Scattered Clouds
2:56 PM 81.0 °F 82.5 °F 63.9 °F 56% 30.05 in 10.0 mi South 10.4 mph - N/A   Scattered Clouds
3:56 PM 81.9 °F 83.2 °F 63.9 °F 54% 30.04 in 10.0 mi SSE 16.1 mph - N/A   Scattered Clouds
4:56 PM 81.9 °F 82.2 °F 59.9 °F 47% 30.04 in 10.0 mi South 10.4 mph - N/A   Scattered Clouds
5:56 PM 81.0 °F 82.5 °F 63.9 °F 56% 30.02 in 10.0 mi South 11.5 mph - N/A   Scattered Clouds
6:56 PM 79.9 °F - 63.0 °F 56% 30.02 in 10.0 mi South 12.7 mph - N/A   Partly Cloudy
7:56 PM 75.9 °F - 63.9 °F 66% 30.03 in 10.0 mi South 5.8 mph - N/A   Partly Cloudy
8:56 PM 72.0 °F - 63.9 °F 76% 30.04 in 10.0 mi South 6.9 mph - N/A   Clear
9:56 PM 70.0 °F - 63.9 °F 81% 30.05 in 10.0 mi SSW 4.6 mph - N/A   Clear
10:56 PM 70.0 °F - 63.9 °F 81% 30.05 in 10.0 mi South 3.5 mph - N/A   Clear
11:56 PM 68.9 °F - 63.9 °F 84% 30.05 in 10.0 mi SSE 6.9 mph - N/A   Clear